Regional Weather Roundup
Issued by NWS

Home | Current Version | Previous Version | Graphics & Text | Print | Product List | Glossary On
Versions: 1 2 3 4 5 6 7 8 9 10 11 12 13 14 15 16 17 18 19 20 21 22 23 24 25 26 27 28 29 30 31 32 33 34 35 36 37 38 39 40 41 42 43 44 45 46 47 48 49 50
000
ASUS43 KMPX 200201
RWRMN
WEATHER ROUNDUP FOR MINNESOTA
NATIONAL WEATHER SERVICE TWIN CITIES/CHANHASSEN MN
800 PM CST FRI DEC 19 2014


NOTE: "FAIR" INDICATES FEW OR NO CLOUDS BELOW 12,000 FEET WITH NO
SIGNIFICANT WEATHER AND/OR OBSTRUCTIONS TO VISIBILITY. N/A MEANS
CURRENT SKY AND/OR WEATHER CONDITIONS ARE NOT AVAILABLE.

MNZ060>063-068>070-200300-
   Twin Cities Metro

CITY           SKY/WX    TMP DP  RH WIND       PRES   REMARKS
TWIN CITIES    CLOUDY    29  24  82 SE6       30.19F WCI  23
ST PAUL        CLOUDY    29  24  82 SE7       30.21S WCI  22
CRYSTAL        CLOUDY    30  26  85 SE7       30.17F FOG     WCI  23
BLAINE         CLOUDY    30  27  86 SE7       30.18F WCI  23
LAKEVILLE      CLOUDY    28  25  86 SE3       30.18S
EDEN PRAIRIE   CLOUDY    30  25  81 SE7       30.17S HAZE    WCI  23
SOUTH ST PAUL  CLOUDY    30  25  81 SE6       30.19F WCI  24
LAKE ELMO      CLOUDY    30  27  86 SE6       30.20F WCI  24
$$
MNZ001>005-007-008-013>017-022>024-027-028-200300-
   Northwest Minnesota

CITY           SKY/WX    TMP DP  RH WIND       PRES   REMARKS
BEMIDJI        LGT SNOW  25  24  97 SE7       30.05S WCI  17
HALLOCK        CLOUDY    28  27  93 SE5       30.01F FOG     WCI  23
ROSEAU         CLOUDY    27  21  80 SE8       30.04F HAZE    WCI  18
WARROAD        CLOUDY    25  21  86 SE8       30.06S FOG     WCI  16
THIEF RVR FALL CLOUDY    27  27 100 SE10      30.03S WCI  17
CROOKSTON      CLOUDY    28  28 100 S9        30.03F FOG     WCI  20
FOSSTON        LGT SNOW  25  25 100 SE7       30.03F WCI  17
DETROIT LAKES  CLOUDY    30  30 100 S12       30.04S FOG     WCI  21
MOORHEAD       CLOUDY    30  30 100 S15       30.03F FOG     WCI  19
PARK RAPIDS    LGT SNOW  26  24  92 SE10      30.05S FOG     WCI  16
MAHNOMEN       CLOUDY    28  26  93 S9        30.03S WCI  19
$$
MNZ006-009>011-018-025>026-200300-
   North Central Minnesota

CITY           SKY/WX    TMP DP  RH WIND       PRES   REMARKS
BAUDETTE       CLOUDY    25  22  88 S6        30.06F FOG     WCI  18
FLAG ISLAND    LGT SNOW  25  23  93 S16       30.05F WCI  12
INTL FALLS     CLOUDY    24  21  88 SE6       30.10S WCI  17
WASKISH        CLOUDY    25  23  93 CALM      30.07F FOG
BIG FORK       LGT SNOW  25  21  86 S7        30.09F WCI  17
LONGVILLE      LGT SNOW  25  25 100 SE9       30.08F WCI  15
GRAND RAPIDS   CLOUDY    23  21  93 S10G17    30.10F WCI  12
CRANE LAKE     CLOUDY    23  21  93 SE3       30.15F
ORR            LGT SNOW  23  19  86 SE7       30.09F WCI  15
COOK           LGT SNOW  23  21  93 SE7       30.12F WCI  15
WALKER         LGT SNOW  24  23  96 SE6       30.07S WCI  17
$$
MNZ012-019>021-037-200300-
   Northeast Minnesota

CITY           SKY/WX    TMP DP  RH WIND       PRES   REMARKS
DULUTH         LGT SNOW  24  22  91 SE9       30.15F FOG     WCI  14
ELY            CLOUDY    23  21  93 S5        30.14F WCI  17
HIBBING        LGT SNOW  24  21  88 S6        30.13S FOG     WCI  17
EVELETH        LGT SNOW  25  23  93 SE6       30.14F WCI  18
DULUTH HARBOR  CLOUDY    28  25  86 CALM      30.22S
TWO HARBORS    CLOUDY    28  23  80 S3        30.17S
SILVER BAY     CLOUDY    27  23  86 CALM      30.17F
GRAND MARAIS     N/A     29  24  82 SW9       30.23S WCI  20
G MARAIS ARPRT CLOUDY    21  18  86 S5        30.16S FOG     WCI  15
$$
MNZ029>031-032-039>041-046>048-054>057-064-200300-
   West Central Minnesota

CITY           SKY/WX    TMP DP  RH WIND       PRES   REMARKS
FERGUS FALLS   CLOUDY    30  28  93 S12       30.08S FOG     WCI  21
WHEATON        CLOUDY    28  27  93 SE9       30.06S FOG     WCI  20
MORRIS         MOCLDY    30  28  93 S13       30.06S FOG     WCI  20
ALEXANDRIA     CLOUDY    30  28  92 S10       30.07F FOG     WCI  21
ELBOW LAKE     CLOUDY    29  29  98 S15       30.05S FOG     WCI  18
WADENA         CLOUDY    28  27  93 S7        30.05F FOG     WCI  21
GLENWOOD       CLOUDY    30  28  93 S15       30.08F FOG     WCI  19
APPLETON       CLOUDY    32  28  86 S6        30.08S WCI  26
BENSON         CLOUDY    30  28  93 S12       30.09S WCI  21
ORTONVILLE     CLOUDY    30  27  86 S9        30.05F WCI  22
MADISON        PTCLDY    34  32  93 S7        30.07F FOG     WCI  28
WILLMAR        CLOUDY    34  28  80 S5        30.11F WCI  30
$$
MNZ033>034-036-042>043-049>051-058-059-200300-
   Central Minnesota

CITY           SKY/WX    TMP DP  RH WIND       PRES   REMARKS
ST CLOUD       CLOUDY    30  26  85 SE12      30.13F FOG     WCI  20
SAUK CENTRE    CLOUDY    30  28  94 S9        30.09F FOG     WCI  22
PAYNESVILLE    CLOUDY    28  28  97 SE7       30.11S FOG     WCI  21
AITKIN         CLOUDY    28  23  80 SE7       30.11F HAZE    WCI  21
PINE RIVER     LGT SNOW  25  25 100 SE10      30.11F VSB 3/4 WCI  15
BRAINERD       CLOUDY    26  24  92 S9        30.11F FOG     WCI  17
STAPLES        CLOUDY    27  27 100 SE7       30.08S FOG     WCI  19
LONG PRAIRIE   CLOUDY    30  28  93 SE12      30.08F FOG     WCI  21
LITTLE FALLS   CLOUDY    28  27  93 SE8       30.12S FOG     WCI  20
LITCHFIELD     CLOUDY    32  30  93 SE7       30.13F FOG     WCI  26
BUFFALO        CLOUDY    30  27  88 SE7       30.16F FOG     WCI  23
MAPLE LAKE     CLOUDY    31  29  94 SE7       30.16S FOG     WCI  24
$$
MNZ037-044-045-052-053-200300-
   East Central Minnesota

CITY           SKY/WX    TMP DP  RH WIND       PRES   REMARKS
PRINCETON      CLOUDY    28  27  93 SE6       30.16F WCI  22
MORA           CLOUDY    27  23  86 S7        30.18F WCI  19
CAMBRIDGE      CLOUDY    28  21  74 SE7       30.15F WCI  21
RUSH CITY      CLOUDY    27  23  86 SE7       30.19F WCI  19
MOOSE LAKE     CLOUDY    27  21  80 CALM      30.15F
HINCKLEY       CLOUDY    28  25  86 S3        30.17F
CLOQUET        CLOUDY    25  21  86 SE6       30.15F FOG     WCI  18
MCGREGOR       CLOUDY    27  23  86 SE8       30.14F WCI  18
$$
MNZ071>073-080-081-089-090-097-098-200300-
   Southwest Minnesota

CITY           SKY/WX    TMP DP  RH WIND       PRES   REMARKS
MONTEVIDEO     CLOUDY    30  30 100 SW7       30.10F FOG     WCI  23
GRANITE FALLS  CLOUDY    31  28  90 S13       30.11S WCI  21
CANBY          CLOUDY    31  30  94 S8        30.07F WCI  24
MARSHALL       CLOUDY    30  27  86 SW17      30.09F WCI  18
REDWOOD FALLS  CLOUDY    33  29  85 S9        30.12S WCI  25
OLIVIA         CLOUDY    34  32  93 S6        30.11F WCI  29
PIPESTONE      CLOUDY    30  28  93 S6        30.06F FOG     WCI  24
WINDOM         CLOUDY    32  28  86 S13G18    30.10F WCI  22
WORTHINGTON    CLOUDY    30  27  86 S15       30.10F WCI  19
JACKSON        CLOUDY    32  28  86 S10       30.11F WCI  24
TRACY          CLOUDY    32  29  90 S7G18     30.09S WCI  25
SLAYTON        CLOUDY    30  29  98 S5        30.09F FOG     WCI  25
$$
MNZ065>067-074>077-082>085-091>093-200300-
   South Central Minnesota

CITY           SKY/WX    TMP DP  RH WIND       PRES   REMARKS
MANKATO        CLOUDY    30  27  86 S8        30.15S WCI  23
NEW ULM        CLOUDY    30  30 100 S6        30.14S FOG     WCI  24
ST JAMES       CLOUDY    34  30  86 SE9       30.14F FOG     WCI  26
FAIRMONT       CLOUDY    30  25  80 S10       30.14S WCI  21
GLENCOE        CLOUDY    32  31  95 SE7       30.15S FOG     WCI  26
FARIBAULT      CLOUDY    30  27  86 SE7       30.17S WCI  23
OWATONNA       MOCLDY    28  25  86 S12       30.16F WCI  18
WASECA         CLOUDY    30  28  93 SE7       30.17F FOG     WCI  23
ALBERT LEA     CLOUDY    28  28 100 S8        30.16S FOG     WCI  20
$$
MNZ078>079-086>088-094>096-200300-
   Southeast Minnesota

CITY           SKY/WX    TMP DP  RH WIND       PRES   REMARKS
ROCHESTER      CLOUDY    27  22  81 S12       30.18F WCI  17
RED WING       CLOUDY    30  23  74 SE7       30.20F WCI  23
STANTON        CLOUDY    31  26  81 SE7       30.17F WCI  24
DODGE CENTER   CLOUDY    28  27  93 S12       30.16F FOG     WCI  18
WINONA         CLOUDY    30  23  74 SE5       30.24S WCI  25
AUSTIN         CLOUDY    28  25  86 S6        30.17F WCI  22
PRESTON        CLOUDY    27  22  81 S7        30.19F WCI  19
$$
ABBREVIATIONS USED IN REMARKS
   TC - TEMPERATURES IN CELSIUS
  WCI - WIND CHILL INDEX
   HX - HEAT INDEX
  VSB - VISIBILITY
$$



USA.gov is the U.S. government's official web portal to all federal, state and local government web resources and services.